Weather History for State College, PA

Change the Weather History Date:

Tuesday, May 21, 2013

  Actual Average Record
Temperature  
Mean Temperature 74 °F -  
Max Temperature 86 °F 73 °F 91 °F (1934)
Min Temperature 63 °F 51 °F 28 °F (2002)
Cooling Degree Days 10    
Growing Degree Days 24 (Base 50)    
Moisture  
Dew Point 64 °F    
Average Humidity 76    
Maximum Humidity 100    
Minimum Humidity 40    
Precipitation  
Precipitation 0.00 in - - ()
Sea Level Pressure  
Sea Level Pressure 29.93 in    
Wind  
Wind Speed 5 mph (SW)    
Max Wind Speed 14 mph    
Max Gust Speed -    
Visibility 9 miles    
Events      
Averages and records for this station are not official NWS values.
T = Trace of Precipitation, MM = Missing Value Source: NWS Daily Summary

Daily Weather History Graph

Daily Weather History Graph

Search for Another Location

Airport:

Trip Planner

Search our weather history database for the weather conditions in past years. The results will help you decide how hot, cold, wet, or windy it might be!

Date:

Astronomy

May. 21, 2013 Rise Set
Actual Time 5:48 AM EDT 8:27 PM EDT
Civil Twilight 5:16 AM EDT 8:59 PM EDT
Nautical Twilight 4:37 AM EDT 9:39 PM EDT
Astronomical Twilight 3:52 AM EDT 10:24 PM EDT
Moon 4:38 PM EDT (5/21) 3:16 AM EDT (5/21)
Length of Visible Light 15h 43m
Length of Day
14h 39m
Waxing Gibbous, 84% of the Moon is Illuminated
May 21
Waxing Gibbous
May 25
Full
May 31
Last Quarter
Jun 8
New
Jun 16
First Quarter

Hourly Weather History & Observations

Time (EDT) Temp. Heat Index Dew Point Humidity Pressure Visibility Wind Dir Wind Speed Gust Speed Precip Events Conditions
12:15 AM 68.9 °F - 63.5 °F 83% 30.00 in 10.0 mi WSW 3.5 mph - N/A   Clear
12:35 AM 69.1 °F - 63.5 °F 82% 30.00 in 10.0 mi WSW 4.6 mph - N/A   Scattered Clouds
12:55 AM 69.1 °F - 63.7 °F 83% 30.00 in 10.0 mi WSW 4.6 mph - N/A   Clear
1:15 AM 67.6 °F - 64.4 °F 89% 29.99 in 10.0 mi Calm Calm - N/A   Scattered Clouds
1:35 AM 67.5 °F - 64.4 °F 90% 29.98 in 10.0 mi SSW 3.5 mph - N/A   Scattered Clouds
1:55 AM 66.7 °F - 63.9 °F 90% 29.97 in 10.0 mi Calm Calm - N/A   Scattered Clouds
2:15 AM 66.4 °F - 63.7 °F 91% 29.96 in 10.0 mi SW 3.5 mph - N/A   Clear
2:35 AM 66.9 °F - 64.0 °F 90% 29.96 in 10.0 mi WSW 5.8 mph - N/A   Clear
2:55 AM 66.6 °F - 64.0 °F 92% 29.95 in 10.0 mi WSW 5.8 mph - N/A   Clear
3:15 AM 65.5 °F - 63.9 °F 94% 29.95 in 10.0 mi SW 5.8 mph - N/A   Clear
3:35 AM 65.8 °F - 64.0 °F 94% 29.95 in 10.0 mi WSW 5.8 mph - N/A   Clear
3:55 AM 66.0 °F - 64.2 °F 94% 29.96 in 10.0 mi WSW 6.9 mph - N/A   Clear
4:15 AM 65.3 °F - 64.2 °F 96% 29.96 in 10.0 mi SW 5.8 mph - N/A   Clear
4:35 AM 65.3 °F - 64.2 °F 96% 29.96 in 10.0 mi SSW 4.6 mph - N/A   Clear
4:55 AM 64.6 °F - 63.5 °F 96% 29.97 in 10.0 mi WSW 3.5 mph - N/A   Clear
5:15 AM 64.0 °F - 63.1 °F 97% 29.98 in 7.0 mi Calm Calm - N/A   Clear
5:35 AM 63.9 °F - 63.0 °F 97% 29.98 in 5.0 mi Calm Calm - N/A   Clear
5:56 AM 64.4 °F - 64.4 °F 100% 29.98 in 7.0 mi Calm Calm - N/A   Clear
6:53 AM 64.4 °F - 64.4 °F 100% 29.99 in 7.0 mi Calm Calm - N/A   Clear
7:53 AM 68.0 °F - 66.2 °F 94% 30.00 in 6.0 mi South 3.5 mph - N/A   Clear
8:53 AM 73.4 °F - 68.0 °F 83% 29.99 in 6.0 mi Calm Calm - N/A   Haze
9:53 AM 77.0 °F - 68.0 °F 74% 29.99 in 6.0 mi SSW 3.5 mph - N/A   Haze
10:53 AM 78.8 °F - 66.2 °F 65% 29.97 in 6.0 mi WSW 3.5 mph - N/A   Haze
11:53 AM 82.4 °F 83.9 °F 64.4 °F 54% 29.96 in 10.0 mi West 5.8 mph - N/A   Mostly Cloudy
12:53 PM 84.2 °F 85.6 °F 64.4 °F 51% 29.94 in 10.0 mi SSW 6.9 mph - N/A   Scattered Clouds
1:53 PM 84.2 °F 85.6 °F 64.4 °F 51% 29.92 in 10.0 mi South 9.2 mph - N/A   Scattered Clouds
2:53 PM 86.0 °F 86.6 °F 62.6 °F 45% 29.90 in 10.0 mi South 11.5 mph - N/A   Scattered Clouds
3:53 PM 86.0 °F 85.4 °F 59.0 °F 40% 29.87 in 7.0 mi SW 13.8 mph - N/A   Scattered Clouds
4:53 PM 86.0 °F 86.1 °F 60.8 °F 43% 29.86 in 7.0 mi SW 13.8 mph - N/A   Scattered Clouds
5:53 PM 86.0 °F 86.1 °F 60.8 °F 43% 29.85 in 7.0 mi SSW 11.5 mph - N/A   Scattered Clouds
6:53 PM 86.0 °F 85.4 °F 59.0 °F 40% 29.84 in 10.0 mi SSW 11.5 mph - N/A   Clear
7:53 PM 82.4 °F 82.9 °F 60.8 °F 48% 29.85 in 10.0 mi SSW 9.2 mph - N/A   Clear
8:53 PM 80.6 °F 82.3 °F 64.4 °F 58% 29.85 in 10.0 mi SSW 6.9 mph - N/A   Scattered Clouds
9:15 PM 79.2 °F - 65.3 °F 62% 29.86 in 10.0 mi SSW 8.1 mph - N/A   Clear
9:35 PM 78.6 °F - 65.7 °F 64% 29.86 in 10.0 mi SSW 6.9 mph - N/A   Clear
9:55 PM 77.7 °F - 66.2 °F 68% 29.87 in 10.0 mi SSW 5.8 mph - N/A   Clear
10:15 PM 77.4 °F - 66.4 °F 69% 29.87 in 10.0 mi SSW 8.1 mph - N/A   Clear
10:35 PM 77.0 °F - 67.1 °F 71% 29.88 in 10.0 mi SSW 8.1 mph - N/A   Clear
10:55 PM 76.5 °F - 67.1 °F 73% 29.87 in 10.0 mi SSW 5.8 mph - N/A   Clear
11:15 PM 74.7 °F - 67.3 °F 78% 29.87 in 10.0 mi SW 5.8 mph - N/A   Clear
11:35 PM 75.2 °F - 67.5 °F 77% 29.86 in 10.0 mi SSW 6.9 mph - N/A   Clear
11:55 PM 73.8 °F - 67.3 °F 80% 29.87 in 10.0 mi SW 5.8 mph - N/A   Clear